| time (UTC) | temp C | wind direction | speed KPH | gust KPH | rain 1hr cm | rain 24hr cm | rain mn cm | humidity % | barometer mb |
| 20260504035849 | 15 | 245 | 0.0 | 0.0 | 0.00 | 0.00 | 0.00 | 84 | 1015.6 |
| 20260504035347 | 15 | 232 | 0.0 | 1.6 | 0.00 | 0.00 | 0.00 | 84 | 1015.6 |
| 20260504034844 | 15 | 178 | 9.7 | 11.3 | 0.00 | 0.00 | 0.00 | 84 | 1015.6 |
| 20260504034342 | 15 | 245 | 0.0 | 0.0 | 0.00 | 0.00 | 0.00 | 83 | 1015.2 |
| 20260504033839 | 15 | 262 | 6.4 | 8.0 | 0.00 | 0.00 | 0.00 | 83 | 1015.6 |
| 20260504033337 | 16 | 179 | 0.0 | 0.0 | 0.00 | 0.00 | 0.00 | 83 | 1015.2 |
| 20260504032833 | 16 | 252 | 0.0 | 1.6 | 0.00 | 0.00 | 0.00 | 83 | 1015.2 |
| 20260504032331 | 16 | 225 | 0.0 | 0.0 | 0.00 | 0.00 | 0.00 | 83 | 1015.2 |
| 20260504031827 | 16 | 230 | 0.0 | 0.0 | 0.00 | 0.00 | 0.00 | 82 | 1014.9 |
| 20260504031324 | 16 | 229 | 0.0 | 1.6 | 0.00 | 0.00 | 0.00 | 82 | 1015.2 |
| 20260504030820 | 16 | 157 | 0.0 | 0.0 | 0.00 | 0.00 | 0.00 | 81 | 1014.9 |
| 20260504030318 | 16 | 171 | 0.0 | 0.0 | 0.00 | 0.00 | 0.00 | 82 | 1014.9 |
| 20260504025814 | 16 | 239 | 0.0 | 0.0 | 0.00 | 0.00 | 0.00 | 82 | 1014.9 |
| 20260504025311 | 16 | 239 | 0.0 | 0.0 | 0.00 | 0.00 | 0.00 | 82 | 1014.9 |
| 20260504024808 | 16 | 236 | 0.0 | 0.0 | 0.00 | 0.00 | 0.00 | 82 | 1014.6 |
| 20260504024304 | 16 | 233 | 0.0 | 0.0 | 0.00 | 0.00 | 0.00 | 82 | 1014.6 |
| 20260504023801 | 16 | 177 | 0.0 | 0.0 | 0.00 | 0.00 | 0.00 | 81 | 1014.6 |
| 20260504023257 | 16 | 230 | 1.6 | 8.0 | 0.00 | 0.00 | 0.00 | 81 | 1014.9 |
| 20260504022753 | 16 | 226 | 0.0 | 0.0 | 0.00 | 0.00 | 0.00 | 82 | 1014.9 |
| 20260504022249 | 16 | 258 | 8.0 | 14.5 | 0.00 | 0.00 | 0.00 | 81 | 1014.6 |
| 20260504021747 | 16 | 244 | 12.9 | 12.9 | 0.00 | 0.00 | 0.00 | 81 | 1014.6 |
| 20260504021244 | 16 | 170 | 8.0 | 11.3 | 0.00 | 0.00 | 0.00 | 81 | 1014.6 |
| 20260504020741 | 16 | 237 | 1.6 | 4.8 | 0.00 | 0.00 | 0.00 | 81 | 1014.6 |
| 20260504020237 | 16 | 243 | 1.6 | 8.0 | 0.00 | 0.00 | 0.00 | 81 | 1014.6 |
| 20260504015733 | 16 | 234 | 0.0 | 0.0 | 0.00 | 0.00 | 0.00 | 81 | 1014.6 |
| 20260504015230 | 16 | 248 | 16.1 | 20.9 | 0.00 | 0.00 | 0.00 | 81 | 1014.2 |
| 20260504014726 | 16 | 266 | 0.0 | 0.0 | 0.00 | 0.00 | 0.00 | 81 | 1014.2 |
| 20260504014223 | 16 | 226 | 0.0 | 0.0 | 0.00 | 0.00 | 0.00 | 81 | 1014.2 |
| 20260504013721 | 16 | 234 | 8.0 | 12.9 | 0.00 | 0.00 | 0.00 | 81 | 1014.2 |
| 20260504013218 | 16 | 273 | 0.0 | 0.0 | 0.00 | 0.00 | 0.00 | 81 | 1014.2 |
| 20260504012714 | 16 | 228 | 6.4 | 9.7 | 0.00 | 0.00 | 0.00 | 81 | 1013.9 |
| 20260504012212 | 16 | 245 | 16.1 | 17.7 | 0.00 | 0.00 | 0.00 | 80 | 1014.2 |
| 20260504011709 | 16 | 233 | 0.0 | 0.0 | 0.00 | 0.00 | 0.00 | 80 | 1014.2 |
| 20260504011205 | 16 | 255 | 11.3 | 17.7 | 0.00 | 0.00 | 0.00 | 80 | 1014.2 |
| 20260504010702 | 16 | 238 | 6.4 | 12.9 | 0.00 | 0.00 | 0.00 | 80 | 1013.9 |
| 20260504010157 | 16 | 225 | 0.0 | 0.0 | 0.00 | 0.00 | 0.00 | 80 | 1014.2 |
| 20260504005654 | 17 | 226 | 6.4 | 11.3 | 0.00 | 0.00 | 0.00 | 79 | 1014.2 |
| 20260504005151 | 16 | 200 | 3.2 | 3.2 | 0.00 | 0.00 | 0.00 | 80 | 1013.9 |
| 20260504004649 | 16 | 232 | 0.0 | 0.0 | 0.00 | 0.00 | 0.00 | 80 | 1013.9 |
| 20260504004146 | 16 | 243 | 0.0 | 0.0 | 0.00 | 0.00 | 0.00 | 81 | 1013.9 |
| 20260504003642 | 16 | 255 | 12.9 | 14.5 | 0.00 | 0.00 | 0.00 | 81 | 1014.2 |
| 20260504003139 | 17 | 242 | 8.0 | 11.3 | 0.00 | 0.00 | 0.00 | 80 | 1013.9 |
| 20260504002636 | 17 | 185 | 0.0 | 0.0 | 0.00 | 0.00 | 0.00 | 80 | 1013.9 |
| 20260504002134 | 16 | 174 | 8.0 | 12.9 | 0.00 | 0.00 | 0.00 | 81 | 1014.2 |
| 20260504001631 | 16 | 273 | 4.8 | 8.0 | 0.00 | 0.00 | 0.00 | 81 | 1014.2 |
| 20260504001127 | 17 | 245 | 6.4 | 9.7 | 0.00 | 0.00 | 0.00 | 81 | 1013.9 |
| 20260504000624 | 17 | 223 | 3.2 | 8.0 | 0.00 | 0.00 | 0.00 | 81 | 1013.9 |
| 20260504000122 | 16 | 253 | 6.4 | 9.7 | 0.00 | 0.00 | 0.00 | 82 | 1013.9 |
| 20260503235620 | 17 | 243 | 0.0 | 0.0 | 0.00 | 0.00 | 0.00 | 81 | 1013.9 |
| 20260503235116 | 17 | 184 | 3.2 | 8.0 | 0.00 | 0.00 | 0.00 | 81 | 1013.5 |
| 20260503234614 | 17 | 186 | 0.0 | 0.0 | 0.00 | 0.00 | 0.00 | 81 | 1013.9 |
| 20260503234112 | 17 | 264 | 0.0 | 0.0 | 0.00 | 0.00 | 0.00 | 80 | 1013.9 |
| 20260503233609 | 17 | 253 | 11.3 | 12.9 | 0.00 | 0.00 | 0.00 | 81 | 1013.9 |
| 20260503233104 | 17 | 156 | 0.0 | 0.0 | 0.00 | 0.00 | 0.00 | 82 | 1013.9 |
| 20260503232601 | 16 | 216 | 0.0 | 0.0 | 0.00 | 0.00 | 0.00 | 83 | 1013.9 |
| 20260503232059 | 17 | 243 | 0.0 | 3.2 | 0.00 | 0.00 | 0.00 | 82 | 1014.2 |
| 20260503231556 | 17 | 233 | 8.0 | 11.3 | 0.00 | 0.00 | 0.00 | 81 | 1014.2 |
| 20260503231053 | 17 | 237 | 14.5 | 17.7 | 0.00 | 0.00 | 0.00 | 80 | 1014.2 |
| 20260503230549 | 17 | 195 | 0.0 | 0.0 | 0.00 | 0.00 | 0.00 | 81 | 1014.2 |
| 20260503230047 | 17 | 194 | 8.0 | 9.7 | 0.00 | 0.00 | 0.00 | 79 | 1014.2 |
| 20260503225544 | 17 | 204 | 0.0 | 1.6 | 0.00 | 0.00 | 0.00 | 77 | 1013.9 |
| 20260503225039 | 17 | 272 | 8.0 | 14.5 | 0.00 | 0.00 | 0.00 | 77 | 1014.2 |
| 20260503224537 | 17 | 242 | 4.8 | 9.7 | 0.00 | 0.00 | 0.00 | 77 | 1014.2 |
| 20260503224034 | 17 | 238 | 8.0 | 11.3 | 0.00 | 0.00 | 0.00 | 76 | 1014.6 |
| 20260503223533 | 17 | 244 | 6.4 | 9.7 | 0.00 | 0.00 | 0.00 | 77 | 1014.6 |
| 20260503223027 | 18 | 201 | 8.0 | 11.3 | 0.00 | 0.00 | 0.00 | 76 | 1014.6 |
| 20260503222526 | 17 | 244 | 6.4 | 9.7 | 0.00 | 0.00 | 0.00 | 76 | 1014.2 |
| 20260503222024 | 17 | 246 | 12.9 | 14.5 | 0.00 | 0.00 | 0.00 | 75 | 1014.6 |
| 20260503221522 | 18 | 253 | 4.8 | 4.8 | 0.00 | 0.00 | 0.00 | 75 | 1014.2 |
| 20260503221019 | 17 | 176 | 8.0 | 14.5 | 0.00 | 0.00 | 0.00 | 75 | 1014.6 |
| 20260503220515 | 18 | 254 | 11.3 | 16.1 | 0.00 | 0.00 | 0.00 | 72 | 1014.2 |
| 20260503220012 | 18 | 257 | 9.7 | 16.1 | 0.00 | 0.00 | 0.00 | 72 | 1014.6 |
| 20260503215509 | 18 | 198 | 6.4 | 11.3 | 0.00 | 0.00 | 0.00 | 73 | 1014.6 |
| 20260503215006 | 18 | 259 | 11.3 | 17.7 | 0.00 | 0.00 | 0.00 | 72 | 1014.2 |
| 20260503214504 | 17 | 246 | 17.7 | 22.5 | 0.00 | 0.00 | 0.00 | 72 | 1014.9 |
| 20260503214001 | 18 | 234 | 11.3 | 12.9 | 0.00 | 0.00 | 0.00 | 73 | 1014.6 |
| 20260503213459 | 17 | 181 | 14.5 | 16.1 | 0.00 | 0.00 | 0.00 | 73 | 1014.6 |
| 20260503212955 | 18 | 221 | 11.3 | 17.7 | 0.00 | 0.00 | 0.00 | 72 | 1014.9 |
| 20260503212453 | 18 | 205 | 12.9 | 17.7 | 0.00 | 0.00 | 0.00 | 71 | 1014.9 |
| 20260503211950 | 18 | 225 | 12.9 | 17.7 | 0.00 | 0.00 | 0.00 | 72 | 1014.6 |
| 20260503211447 | 18 | 177 | 14.5 | 16.1 | 0.00 | 0.00 | 0.00 | 71 | 1014.9 |
| 20260503210942 | 18 | 208 | 6.4 | 11.3 | 0.00 | 0.00 | 0.00 | 72 | 1014.9 |
| 20260503210439 | 18 | 242 | 14.5 | 17.7 | 0.00 | 0.00 | 0.00 | 72 | 1014.9 |
| 20260503205934 | 18 | 175 | 12.9 | 16.1 | 0.00 | 0.00 | 0.00 | 70 | 1014.9 |
| 20260503205432 | 18 | 250 | 11.3 | 16.1 | 0.00 | 0.00 | 0.00 | 67 | 1014.9 |
| 20260503204927 | 18 | 234 | 9.7 | 12.9 | 0.00 | 0.00 | 0.00 | 69 | 1014.9 |
| 20260503204425 | 18 | 223 | 12.9 | 16.1 | 0.00 | 0.00 | 0.00 | 68 | 1014.9 |
| 20260503203921 | 18 | 218 | 9.7 | 12.9 | 0.00 | 0.00 | 0.00 | 70 | 1014.9 |
| 20260503203419 | 18 | 229 | 4.8 | 8.0 | 0.00 | 0.00 | 0.00 | 69 | 1014.9 |
| 20260503202916 | 18 | 236 | 0.0 | 3.2 | 0.00 | 0.00 | 0.00 | 68 | 1014.9 |
| 20260503202414 | 18 | 189 | 0.0 | 0.0 | 0.00 | 0.00 | 0.00 | 70 | 1014.9 |
| 20260503201912 | 18 | 260 | 16.1 | 16.1 | 0.00 | 0.00 | 0.00 | 66 | 1014.9 |
| 20260503201409 | 18 | 230 | 9.7 | 14.5 | 0.00 | 0.00 | 0.00 | 68 | 1014.9 |
| 20260503200907 | 18 | 269 | 11.3 | 14.5 | 0.00 | 0.00 | 0.00 | 69 | 1014.9 |
| 20260503200402 | 18 | 273 | 11.3 | 14.5 | 0.00 | 0.00 | 0.00 | 67 | 1014.9 |
| 20260503195859 | 18 | 260 | 11.3 | 16.1 | 0.00 | 0.00 | 0.00 | 66 | 1014.9 |
| 20260503195356 | 18 | 237 | 11.3 | 12.9 | 0.00 | 0.00 | 0.00 | 65 | 1014.9 |
| 20260503194853 | 18 | 240 | 11.3 | 12.9 | 0.00 | 0.00 | 0.00 | 65 | 1014.9 |
| 20260503194349 | 17 | 242 | 9.7 | 11.3 | 0.00 | 0.00 | 0.00 | 68 | 1015.2 |
| 20260503193846 | 18 | 246 | 6.4 | 11.3 | 0.00 | 0.00 | 0.00 | 67 | 1015.2 |
| 20260503193341 | 18 | 174 | 8.0 | 11.3 | 0.00 | 0.00 | 0.00 | 68 | 1015.2 |
| 20260503192837 | 18 | 238 | 9.7 | 11.3 | 0.00 | 0.00 | 0.00 | 71 | 1015.2 |
| 20260503192333 | 18 | 218 | 9.7 | 12.9 | 0.00 | 0.00 | 0.00 | 70 | 1015.2 |
| 20260503191829 | 18 | 169 | 0.0 | 0.0 | 0.00 | 0.00 | 0.00 | 70 | 1015.2 |
| 20260503191326 | 18 | 250 | 8.0 | 9.7 | 0.00 | 0.00 | 0.00 | 70 | 1015.2 |
| 20260503190823 | 18 | 245 | 12.9 | 14.5 | 0.00 | 0.00 | 0.00 | 69 | 1015.6 |
| 20260503190321 | 18 | 237 | 0.0 | 0.0 | 0.00 | 0.00 | 0.00 | 66 | 1015.6 |
| 20260503185817 | 18 | 244 | 0.0 | 0.0 | 0.00 | 0.00 | 0.00 | 67 | 1015.6 |
| 20260503185313 | 18 | 247 | 9.7 | 11.3 | 0.00 | 0.00 | 0.00 | 67 | 1015.6 |
| 20260503184808 | 18 | 262 | 0.0 | 0.0 | 0.00 | 0.00 | 0.00 | 67 | 1015.6 |
| 20260503184304 | 18 | 277 | 6.4 | 9.7 | 0.00 | 0.00 | 0.00 | 68 | 1015.2 |
| 20260503183800 | 18 | 248 | 0.0 | 0.0 | 0.00 | 0.00 | 0.00 | 68 | 1015.6 |
| 20260503183258 | 18 | 240 | 0.0 | 0.0 | 0.00 | 0.00 | 0.00 | 69 | 1015.6 |
| 20260503182755 | 18 | 184 | 11.3 | 11.3 | 0.00 | 0.00 | 0.00 | 69 | 1015.6 |
| 20260503182254 | 18 | 151 | 8.0 | 9.7 | 0.00 | 0.00 | 0.00 | 69 | 1015.6 |
| 20260503181750 | 18 | 221 | 6.4 | 11.3 | 0.00 | 0.00 | 0.00 | 69 | 1015.6 |
| 20260503181247 | 17 | 202 | 0.0 | 0.0 | 0.00 | 0.00 | 0.00 | 72 | 1015.6 |
| 20260503180744 | 17 | 218 | 3.2 | 4.8 | 0.00 | 0.00 | 0.00 | 72 | 1015.6 |
| 20260503180242 | 17 | 247 | 11.3 | 14.5 | 0.00 | 0.00 | 0.00 | 72 | 1015.9 |
| 20260503175738 | 17 | 220 | 8.0 | 11.3 | 0.00 | 0.00 | 0.00 | 71 | 1015.6 |
| 20260503175236 | 17 | 245 | 11.3 | 12.9 | 0.00 | 0.00 | 0.00 | 71 | 1015.6 |
| 20260503174732 | 17 | 254 | 0.0 | 0.0 | 0.00 | 0.00 | 0.00 | 73 | 1015.6 |
| 20260503174231 | 17 | 227 | 0.0 | 0.0 | 0.00 | 0.00 | 0.00 | 76 | 1015.6 |
| 20260503173730 | 17 | 215 | 0.0 | 0.0 | 0.00 | 0.00 | 0.00 | 76 | 1015.6 |
| 20260503173226 | 17 | 201 | 0.0 | 0.0 | 0.00 | 0.00 | 0.00 | 77 | 1015.6 |
| 20260503172724 | 16 | 173 | 0.0 | 0.0 | 0.00 | 0.00 | 0.00 | 79 | 1015.6 |
| 20260503172221 | 17 | 223 | 0.0 | 0.0 | 0.00 | 0.00 | 0.00 | 76 | 1015.6 |
| 20260503171717 | 17 | 160 | 0.0 | 0.0 | 0.00 | 0.00 | 0.00 | 74 | 1015.6 |
| 20260503171214 | 17 | 151 | 0.0 | 0.0 | 0.00 | 0.00 | 0.00 | 74 | 1015.6 |
| 20260503170711 | 17 | 215 | 0.0 | 0.0 | 0.00 | 0.00 | 0.00 | 77 | 1015.2 |
| 20260503170208 | 16 | 261 | 0.0 | 0.0 | 0.00 | 0.00 | 0.00 | 79 | 1015.2 |
| 20260503160130 | 16 | 184 | 0.0 | 0.0 | 0.00 | 0.00 | 0.00 | 79 | 1014.9 |
| 20260503150600 | 16 | 131 | 0.0 | 0.0 | 0.00 | 0.00 | 0.00 | 85 | 1014.9 |
| 20260503130949 | 15 | 246 | 0.0 | 0.0 | 0.00 | 0.00 | 0.00 | 90 | 1013.9 |
| 20260503130447 | 15 | 251 | 0.0 | 0.0 | 0.00 | 0.00 | 0.00 | 91 | 1013.9 |
| 20260503110343 | 15 | 168 | 0.0 | 0.0 | 0.00 | 0.00 | 0.00 | 89 | 1013.2 |
| 20260503090224 | 15 | 157 | 0.0 | 0.0 | 0.00 | 0.00 | 0.00 | 87 | 1014.2 |
| 20260503081151 | 15 | 171 | 0.0 | 0.0 | 0.00 | 0.00 | 0.00 | 87 | 1014.2 |
| 20260503080646 | 15 | 181 | 0.0 | 0.0 | 0.00 | 0.00 | 0.00 | 88 | 1014.6 |
| 20260503080144 | 15 | 151 | 0.0 | 0.0 | 0.00 | 0.00 | 0.00 | 88 | 1014.2 |
| 20260503072615 | 15 | 157 | 0.0 | 0.0 | 0.00 | 0.00 | 0.00 | 90 | 1013.9 |
| 20260503072112 | 15 | 214 | 0.0 | 0.0 | 0.00 | 0.00 | 0.00 | 90 | 1014.2 |
| 20260503071608 | 15 | 193 | 0.0 | 0.0 | 0.00 | 0.00 | 0.00 | 90 | 1014.2 |
| 20260503071105 | 15 | 199 | 0.0 | 0.0 | 0.00 | 0.00 | 0.00 | 90 | 1013.9 |
| 20260503070602 | 15 | 161 | 0.0 | 0.0 | 0.00 | 0.00 | 0.00 | 91 | 1013.9 |
| 20260503055014 | 15 | 219 | 0.0 | 0.0 | 0.00 | 0.00 | 0.00 | 95 | 1013.9 |
| 20260503054510 | 15 | 218 | 0.0 | 0.0 | 0.00 | 0.00 | 0.00 | 95 | 1013.9 |
| 20260503054008 | 15 | 228 | 0.0 | 0.0 | 0.00 | 0.00 | 0.00 | 95 | 1013.9 |
| 20260503053506 | 15 | 169 | 0.0 | 0.0 | 0.00 | 0.00 | 0.00 | 95 | 1013.9 |
| 20260503053003 | 15 | 244 | 0.0 | 0.0 | 0.00 | 0.00 | 0.00 | 95 | 1013.9 |
| 20260503052500 | 15 | 227 | 0.0 | 0.0 | 0.00 | 0.00 | 0.00 | 95 | 1013.9 |
| 20260503051956 | 15 | 255 | 0.0 | 0.0 | 0.00 | 0.00 | 0.00 | 95 | 1013.9 |
| 20260503051452 | 15 | 261 | 0.0 | 0.0 | 0.00 | 0.00 | 0.00 | 95 | 1013.9 |
| 20260503050949 | 15 | 227 | 0.0 | 0.0 | 0.00 | 0.00 | 0.00 | 95 | 1013.9 |
| 20260503050445 | 15 | 252 | 0.0 | 1.6 | 0.00 | 0.00 | 0.00 | 95 | 1013.9 |
| 20260503045943 | 15 | 250 | 0.0 | 0.0 | 0.00 | 0.00 | 0.00 | 95 | 1013.9 |
| 20260503045440 | 15 | 212 | 0.0 | 0.0 | 0.00 | 0.00 | 0.00 | 95 | 1013.9 |
| 20260503044937 | 15 | 226 | 0.0 | 0.0 | 0.00 | 0.00 | 0.00 | 95 | 1013.9 |
| 20260503044434 | 15 | 169 | 0.0 | 0.0 | 0.00 | 0.00 | 0.00 | 95 | 1013.9 |
| 20260503043932 | 15 | 238 | 0.0 | 0.0 | 0.00 | 0.00 | 0.00 | 95 | 1013.9 |
| 20260503043427 | 15 | 213 | 0.0 | 0.0 | 0.00 | 0.00 | 0.00 | 95 | 1013.9 |
| 20260503042924 | 15 | 244 | 4.8 | 9.7 | 0.00 | 0.00 | 0.00 | 95 | 1013.5 |
| 20260503042421 | 15 | 231 | 0.0 | 0.0 | 0.00 | 0.00 | 0.00 | 95 | 1013.2 |
| 20260503041917 | 15 | 249 | 0.0 | 0.0 | 0.00 | 0.00 | 0.00 | 95 | 1013.5 |
| 20260503041414 | 15 | 238 | 0.0 | 0.0 | 0.00 | 0.00 | 0.00 | 95 | 1013.5 |
| 20260503040912 | 15 | 235 | 0.0 | 1.6 | 0.00 | 0.00 | 0.00 | 95 | 1013.2 |
| 20260503040409 | 15 | 224 | 0.0 | 0.0 | 0.00 | 0.00 | 0.00 | 95 | 1012.9 |